Hourly Data Report for May 28, 2021

CARIBOU POINT (AUT)
NOVA SCOTIA
Current Station Operator: ECCC - MSC

45°46'00.000" N
62°41'00.000" W
2.40 m
8200774
71415
WBK

Download Data

Hourly Data (May 2021)
Hourly Data Report for May 28, 2021
TIME
LST
Temp Definition
°C
Dew Point Definition
°C
Rel Hum Definition
%
Precip. Amount Definition
mm

Wind Dir Definition
10's deg

Wind Spd Definition
km/h
Visibility Definition
km
Stn Press Definition
kPa
Hmdx Definition


Wind Chill Definition


Weather Definition


00:00 8.1 3.0 70 0.0 34 24   101.34     LegendNANA
01:00 7.6 0.4 60 0.0 34 23   101.35     LegendNANA
02:00 7.6 1.0 63 0.0 34 25   101.38     LegendNANA
03:00 7.6 0.8 62 0.0 33 24   101.37     LegendNANA
04:00 7.4 0.0 60 0.0 32 27   101.37     LegendNANA
05:00 7.3 0.3 61 0.0 33 31   101.37     LegendNANA
06:00 7.2 -0.2 59 0.0 33 25   101.43     LegendNANA
07:00 7.5 -0.3 57 0.0 32 29   101.45     LegendNANA
08:00 8.4 2.4 66 0.0 30 36   101.48     LegendNANA
09:00 8.3 -1.3 51 0.0 30 37   101.49     LegendNANA
10:00 8.1 -1.2 52 0.0 30 38   101.50     LegendNANA
11:00 8.2 0.9 60 0.0 31 33   101.51     LegendNANA
12:00 8.3 0.4 57 0.0 32 30   101.49     LegendNANA
13:00 8.6 -0.5 53 0.0 33 22   101.46     LegendNANA
14:00 9.2 0.5 54 0.0 32 21   101.44     LegendNANA
15:00 10.0 0.1 50 0.0 31 16   101.43     LegendNANA
16:00 11.2 2.2 54 0.0 29 11   101.43     LegendNANA
17:00 11.3 1.2 50 0.0 30 14   101.43     LegendNANA
18:00 8.9 2.8 66 0.0 5 18   101.51     LegendNANA
19:00 8.2 2.2 66 0.0 8 25   101.60     LegendNANA
20:00 7.7 1.8 67 0.0 8 20   101.68     LegendNANA
21:00 7.5 1.5 66 0.0 9 16   101.78     LegendNANA
22:00 7.2 -0.5 58 0.0 3 17   101.85     LegendNANA
23:00 7.3 -1.4 54 0.0 1 8   101.89     LegendNANA

Notes on Data Quality.

Legend

  • E = Estimated
  • M = Missing
  • NA = Not Available*
  • [empty] = Indicates an unobserved value
Date modified: